Location: Casilda
(33.0440°S, 61.1680°W)
Time: 00:22:05
(UTC-03:00)

ISS - Pass Details

Date: 27 March 2020
Orbit: 417 x 423 km, 51.6° (Epoch: 29 March)

Event Time Altitude Azimuth Distance (km) Brightness Sun altitude
Exits shadow 06:30:29 10° 239° (WSW) 1,539 -1.4 -9.8°
Reaches altitude 10° 06:30:32 10° 238° (WSW) 1,530 -1.4 -9.8°
Maximum altitude 06:32:12 13° 209° (SSW) 1,366 -1.4 -9.5°
Drops below altitude 10° 06:33:52 10° 180° (S) 1,536 -0.9 -9.1°
Sets 06:36:57 0° 151° (SSE) 2,408 0.6 -8.5°
